FOCUS ON

Prossimi Eventi

  • Nessun Evento in Calendario
AEC v1.0.4

Categorie

Traversata 2013: Ordine di arrivo

domenica, luglio 14, 2013 @ 04:07 PM

La Pro Loco di Mandello del Lario è lieta di pubblicare l’orrdine d’arrivo della 18^ edizione della

Traversata del Lario 2013

 

POSIZIONE NUMERO COGNOME NOME TEMPO
1 576 GESINI ALESSANDRO 00:17:46
2 554 VERGANI VALERIA 00:18:02
3 516 RIVA FABRIZIO 00:18:07
4 532 RIGANTI FABIO 00:18:15
5 646 RIVA MICHELE 00:18:35
6 171 PRECIADO OSCAR 00:19:00
7 647 PATTINI SERGIO 00:19:16
8 670 MORONCELLI ANGELO 00:19:23
9 89 SEROTTI FABIO 00:19:26
10 244 DEL PERO JACOPO 00:19:31
11 519 COLOMBO GABRIELE 00:20:02
12 82 MICHELI NICOLA 00:20:04
13 22 FOSTI CHRISTIAN 00:20:34
14 81 LUCCHINI DANIELE 00:20:37
15 569 GOBBIN FABIO 00:20:57
16 580 BRUSADELLI PAOLA 00:21:02
17 220 PALMA YURI 00:21:04
18 80 GALLI FAUSTO 00:21:06
19 566 MARTINELLI ANTONIO 00:21:10
20 65 SBOLGI DAVID 00:21:13
21 85 SALA FABIO 00:21:33
22 100 PENNATI IGOR 00:21:48
23 271 MAGNI MASSIMILIANO 00:21:51
24 539 PAPETTI LUCA 00:21:54
25 26 BELLONI SARA 00:22:17
26 78 BISCI GIOVANNI 00:22:20
27 92 GADDI GABRIO 00:22:20
28 95 CORTI MARCO 00:22:25
29 67 DONATO SANTINO 00:22:33
30 667 RUSCONI MAURIZIO 00:22:33
31 21 STURARO ROBERTO 00:22:37
32 218 LONGONI MATTEO 00:22:38
33 515 PEDRETTI WALTER 00:22:41
34 334 DECANO VINCENZO 00:22:46
35 478 MORELLI LUCIANO 00:22:49
36 592 TRIVELLONE STEFANO 00:22:52
37 511 JARY MARCO 00:22:54
38 84 PONTIFICALE MARCO 00:22:55
39 595 MAZZETTI SIMONE 00:22:56
40 499 TASCA SANDRO 00:22:56
41 25 MORANDI STEFANO 00:22:58
42 258 TORTATO DAVIDE 00:23:02
43 290 BORALI FABIO 00:23:03
44 88 VALAGUSSA MARUSKA 00:23:07
45 336 MALVESTITI LUIGI 00:23:10
46 63 ANDREANA VITO 00:23:10
47 680 BRESESCHI ISACCO 00:23:11
48 179 MERONI DANIELE 00:23:13
49 240 BOTTA EDOARDO 00:23:13
50 563 MANDELLI CRISTIAN 00:23:13
51 418 CAMAGNI FEDERICA 00:23:14
52 17 DELLA MORETTA PAOLO 00:23:15
53 76 ANGHILERI PAOLO 00:23:16
54 53 CORDELLA ANDREA 00:23:17
55 87 SPREAFICO PAOLO 00:23:20
56 671 DELLA FONTANA MASSIMO 00:23:22
57 219 STEVANIN ILARIA 00:23:24
58 679 VALTORTA ROBERTO 00:23:25
59 192 ABATI ALBERTO 00:23:25
60 469 CIOCCA ETTORE 00:23:25
61 632 PRINI LUCIANO 00:23:27
62 577 GELPI MARCO 00:23:34
63 332 COLLEONI ANTONELLO 00:23:37
64 209 ULACCO MATTEO 00:23:39
65 545 BOLOGNARO MARCO 00:23:48
66 495 SCAPPA MATTEO 00:23:51
67 278 TESSARO MICHELA 00:23:52
68 581 POZZI MASSIMILIANO 00:23:58
69 672 MASHKOVTSEVA SVETLANA 00:23:58
70 324 GERVASONI ERICA 00:23:58
71 484 FOSSATI CLAUDIO 00:24:01
72 131 MASARA’ LUCA 00:24:01
73 348 SPINELLO LUCA 00:24:02
74 292 NOSSA RICCARDO 00:24:02
75 391 PROSERPIO ANDREA 00:24:05
76 104 REATI DAVIDE 00:24:08
77 128 DIANI LUCA 00:24:09
78 342 ZAZZARA SANDRO 00:24:15
79 163 ANDREANI MONICA 00:24:17
80 558 AMATI MARCO 00:24:21
81 493 MAURI DIEGO 00:24:24
82 567 SCHIAVETTA PAOLO 00:24:27
83 444 ACQUISTAPACE MARCO 00:24:28
84 562 TALARICO MARCO 00:24:40
85 440 CECILIANI LORENZO 00:24:40
86 321 VALTORTA FILIPPO 00:24:41
87 308 CALVI EMANUELE 00:24:42
88 103 MONGUZZI LUCA 00:24:43
89 204 GILARDI STEFANO 00:24:43
90 501 RANA MAURO 00:24:44
91 213 MOLTENI CHRISTIAN 00:24:48
92 494 CARRERA FRANCESCO 00:24:50
93 214 MASPERO ALESSANDRO 00:24:55
94 79 DE CAPITANI SERGIO 00:25:00
95 129 DOSSI FEDERICO 00:25:08
96 42 TENTORI GIAMPIERO 00:25:11
97 33 PIATTI SUSANNA 00:25:12
98 643 SPINELLA ROBERTO 00:25:14
99 9 BELLONI DANIELE 00:25:16
100 10 LOGLISCI ANTONIO 00:25:18
101 496 RAIMONDI MARIO 00:25:22
102 96 AMOLINI GIANPIERO 00:25:24
103 666 GALASIO DAVIDE 00:25:25
104 56 CACCAMO PAOLO 00:25:25
105 556 GNECCHI MAURO 00:25:27
106 669 SIDOLI PAOLO 00:25:30
107 74 AIROLDI DAVIDE 00:25:35
108 610 FAVINI LUCA 00:25:35
109 208 ELLI FABIO 00:25:37
110 445 MARELLI ORIANA 00:25:38
111 618 MELZI ALESSANDRO LUCA 00:25:40
112 29 CASARICO LUCIO 00:25:43
113 329 ROTA FEDERICA 00:25:43
114 90 BONO PAOLO 00:25:44
115 116 RUSCONI STEFANO 00:25:44
116 4 ROSSI GIACOMO 00:25:51
117 164 FERRARIO ALESSANDRO 00:25:57
118 453 BARAIOLO FRANCESCO 00:25:58
119 261 CORIO LUCA 00:26:00
120 43 BOLIS PIERO 00:26:01
121 98 FAZZI SIMONE 00:26:02
122 28 CASARICO DANIELE 00:26:07
123 522 SCAIOLI ALBERTO 00:26:10
124 343 VERZENI MARIA LUISA 00:26:16
125 20 ABATE EMMANUELE 00:26:18
126 13 PULVIRENTI CHIARA 00:26:18
127 474 FORLANI MONICA 00:26:19
128 135 MAZZOLA DARIO 00:26:21
129 1 SEVERGNINI STEFANO 00:26:21
130 91 SILVANI CRISTIAN 00:26:23
131 668 SALINETTI PAOLO 00:26:24
132 483 SCICOLONE BRUNO 00:26:24
133 574 TENTORI PAOLO 00:26:26
134 364 PEDERZOLI STEFANO 00:26:26
135 49 COLOMBO ENRICO 00:26:27
136 14 CORBELLI LUCA 00:26:27
137 153 RONCORONI LUCA 00:26:30
138 400 ORTALLI ANDREA 00:26:31
139 157 CHIESA MOSE’ 00:26:33
140 105 BARELLI STEFANO 00:26:34
141 411 BARBA SILVIO 00:26:34
142 323 VILLA CHIARA 00:26:36
143 641 SIRONI BRIAN 00:26:39
144 381 FERRARI STEFANO 00:26:41
145 24 VERANI MATTEO 00:26:44
146 11 FAZZI CLAUDIA 00:26:47
147 294 GATTI FLAVIO 00:26:48
148 571 CAPUCCI ROBERTA 00:26:49
149 83 ORLANDELLI SAVERIO 00:26:51
150 140 CARAVITA RUGGERO 00:26:51
151 60 PESENTI MARCO 00:26:52
152 199 RIMOLI FRANCESCO 00:26:53
153 62 FORMENTI MARCO 00:26:55
154 678 MASANTI ANDREA 00:26:59
155 335 GRITTI ANDREA 00:27:01
156 598 GANDOLFI LAURA 00:27:01
157 561 GALLI ALBERTO 00:27:01
158 597 CANZI PAOLO 00:27:03
159 527 BAIOCCHI LORENZO 00:27:04
160 603 GALBIATI STEFANO 00:27:04
161 277 BRUERA MARCO 00:27:05
162 75 ALDEGHI EMANUELE 00:27:06
163 266 SIMONE GIULIO 00:27:07
164 395 AMATI FLAVIO 00:27:10
165 186 MARABESE MASSIMO 00:27:10
166 506 COMBI MORENO 00:27:11
167 459 MACECCHINI GIORGIO 00:27:14
168 223 VISMARA ANDREA 00:27:15
169 265 SIMONE ARNALDO 00:27:16
170 148 ACONE TINA FLORA 00:27:17
171 394 VERGANI ROBERTO 00:27:19
172 406 BREGAGLIO LUCA 00:27:20
173 540 TRESOLDI ALESSANDRO 00:27:25
174 52 FRANCESCHINI STEFANO 00:27:28
175 274 MORANDI CARLO 00:27:29
176 165 STEFANONI ALESSANDRO 00:27:37
177 482 CORTI GIANMARIO 00:27:38
178 32 LETIZIA ROBERTO 00:27:41
179 398 BRIVIO FRANCO 00:27:43
180 461 GATTEI MARCO 00:27:43
181 320 GATTI GUIDO 00:27:44
182 502 DELLA CHIESA LUCA 00:27:44
183 72 TFAYLI HAYDAR 00:27:47
184 485 VENEZIANO GIUSEPPE 00:27:47
185 301 ROZZONI DARIO 00:27:48
186 615 PIERPAOLI FABRIZIO 00:27:49
187 44 POZZOLI ALBERTO 00:27:49
188 101 BAITELLI MARCO 00:27:49
189 500 CONTEGIACOMO GABRIELLA 00:27:49
190 367 CARADONNA SARA 00:27:50
191 534 GRECO ROBERTO 00:27:52
192 264 CLEMENCIGH MATTEO 00:27:53
193 328 FORSCH FREDERICK FRANCIS 00:27:53
194 71 ZUCCHI ALESSANDRO 00:27:54
195 386 SANTAMBROGIO LUCIANO 00:27:55
196 257 NEGRI MADDALENA 00:27:56
197 658 VALTOLINA ANGELO ALFREDO 00:27:56
198 644 ZECCHINI LUCA 00:27:57
199 413 VIGANÒ ROBERTO 00:27:58
200 584 TARSITANO FEDERICA 00:28:01
201 585 FIGINI INES 00:28:01
202 114 MARENA ANTONELLO 00:28:03
203 438 SESANA LUCA 00:28:04
204 620 ROSATI GIORGIO 00:28:06
205 619 CAGLIO MARCO 00:28:06
206 410 MAGGIONI LUIGI 00:28:09
207 31 TENTORI RAFFAELE 00:28:10
208 226 LIMONTA MICHELE 00:28:11
209 594 GODINO DANIEL 00:28:12
210 480 ROSSI EROS 00:28:12
211 174 ANDREANI DIEGO 00:28:13
212 38 GIAMBARDA ANDREA 00:28:15
213 64 VASSENA ENRICA 00:28:16
214 525 LOCATELLI OSCAR 00:28:18
215 417 SAVOINI ALESSIO 00:28:18
216 235 CASSIANI INGONI MATTIA 00:28:19
217 124 CAPUTO FRANCESCO 00:28:20
218 396 VARENNA ALBERTO 00:28:22
219 570 LAKO EVA 00:28:25
220 451 DELLA FONTANA CRISTIAN 00:28:27
221 508 CORNEO SERGIO 00:28:27
222 212 CORTI CARLO 00:28:29
223 645 ROTA MAURIZIO 00:28:32
224 446 PETRETTI GIOVANNI 00:28:34
225 237 KOCH ISABELLE 00:28:37
226 6 CICERONE SARAH 00:28:37
227 15 SALVI ALBERTO 00:28:41
228 16 BELVERATO KATIA 00:28:42
229 126 CONTINI MATTEO 00:28:42
230 599 CAMAGNI ALESSANDRO 00:28:43
231 430 GALASSO GIANPAOLO 00:28:44
232 579 CAROZZI MIRKO 00:28:45
233 393 PIROVANO IVAN 00:28:49
234 46 VENEZIA DOMENICA 00:28:51
235 415 CICERI CLAUDIO 00:28:56
236 94 DI DATO ALESSANDRO 00:28:58
237 465 MATTEAZZI DAVIDE 00:28:58
238 552 STARK WOLFGANG 00:29:03
239 47 DEL MAFFEO SILVANO 00:29:07
240 187 CRAVERO BARBARA 00:29:07
241 311 VIGANÒ AMBROGIO 00:29:11
242 497 NESPOLI EMANUELE 00:29:12
243 158 MOSCA DANIELE 00:29:14
244 403 PANZERI PAOLO 00:29:14
245 253 MERONI MARCO 00:29:15
246 247 MERONI MARGHERITA 00:29:17
247 39 ZANNI LUCA 00:29:17
248 283 INVIDIATA MARCO 00:29:18
249 505 BONAITI GIULIANO 00:29:18
250 280 FERRAROLI MARTINA 00:29:20
251 634 STREITBERGER ANDREAS 00:29:21
252 538 MOTTA MAURIZIO 00:29:22
253 600 BOVINO GIUSEPPE 00:29:24
254 170 DE CAPRIO VITTORIO 00:29:25
255 573 DELL’ERA EUGENIO 00:29:26
256 441 VARISCHETTI MARTA 00:29:27
257 357 COMI ALVARO 00:29:27
258 310 TONIOLI CLAUDIA 00:29:28
259 252 CARCANGIU’ ROBERTO 00:29:28
260 340 GRITTI DANIELE 00:29:29
261 555 TENTORI MARTA 00:29:31
262 86 SPREAFICO CLAUDIO 00:29:32
263 572 LUCONI LAURA 00:29:33
264 159 COCOLO ALESSANDRO 00:29:34
265 260 TORTATO DANIELE 00:29:35
266 210 ISELLA MICHAEL 00:29:36
267 373 PREVITALI ORNELLA 00:29:37
268 370 RIVOLTA EMANUELA 00:29:37
269 454 SANTANTONIO MATTEO 00:29:37
270 305 FERRI DANIELE 00:29:38
271 224 CATENA LAURA 00:29:38
272 18 TOMASSONE DIEGO 00:29:39
273 97 TREZZI RICCARDO 00:29:39
274 112 TOCCHETTI BARBARA 00:29:41
275 449 RICCIARDINI CHIARA 00:29:44
276 531 GENOVESE MORGAN 00:29:46
277 263 VISTOLA LUCA 00:29:46
278 663 PULLICI MILENA 00:29:48
279 309 VISTOLI MAURO 00:29:49
280 470 BESANA CRISTINA 00:29:50
281 414 SASSERA LUIGI 00:29:55
282 230 BRAMBILLA MARCO 00:29:56
283 549 ROMANO VITTORIO 00:29:57
284 270 GIUDICI DANIELE EDOARDO 00:29:57
285 546 GUZZETTI DAVIDE 00:29:58
286 544 PEZZINI DANIELE FRANCESCO 00:30:02
287 385 PIZZI FRANCESCO 00:30:07
288 156 MOTTADELLI FABRIZIO 00:30:09
289 407 RIZZI PAOLA 00:30:15
290 681 TOGNI ANDREA 00:30:16
291 333 BUFFA PAOLO 00:30:19
292 674 RAMPOLDI ANDREA 00:30:20
293 132 RIVETTA FULVIO 00:30:22
294 229 CONCA ALAN 00:30:24
295 399 MOSCARDO PAOLO 00:30:29
296 196 BRAMBILLA SERENA 00:30:31
297 45 RIVA DAVIDE 00:30:33
298 35 LANGIU MARILENA 00:30:34
299 236 RIVA EMANUELA 00:30:34
300 152 FOSCHI ENRICA 00:30:35
301 437 LADISA NICOLA 00:30:37
302 354 BERETTA ANDREA 00:30:38
303 557 SCOTTI RICCARDO 00:30:39
304 433 MICHELI GUIDO 00:30:39
305 197 BARETTA DARIO 00:30:41
306 109 MARAZZI ELISA 00:30:41
307 262 ROLLA FLAVIO 00:30:41
308 346 BONANOME DOMENICO 00:30:43
309 467 LOMBARDO RAFFAELE 00:30:44
310 313 MOROSINI ETTORE 00:30:45
311 130 ERBA FABIO 00:30:48
312 269 ROVELLINI MARCO 00:30:48
313 246 RADAELLI ELISA 00:30:49
314 551 FERRI MARIO 00:30:49
315 355 STUCCHI VITTORIO 00:30:50
316 589 BUSNELLI FABIO 00:30:51
317 228 MAGGI ALESSIO 00:30:56
318 141 CRESPI PIERLUIGI 00:30:58
319 387 SEVESO LUCA MARIA 00:31:00
320 7 MORESCHI GIORGIO CESARE 00:31:02
321 408 CEREDA MATTEO 00:31:08
322 401 MOTTA STEFANO 00:31:08
323 347 ZENESINI ENRICO 00:31:13
324 66 MOLTENI DAVIDE 00:31:20
325 300 BONVINI GIOVANNI 00:31:22
326 471 ORNAGHI TIZIANA 00:31:22
327 397 TALDO GIACOMO 00:31:24
328 327 FUSARI DAVIDE 00:31:27
329 578 MAGNI MASSIMO 00:31:28
330 8 PEVERI GIUSEPPE 00:31:30
331 575 QUINTINI IGOR 00:31:30
332 389 ESPOSITO LEONARDO 00:31:31
333 361 LANDI IRENE 00:31:31
334 650 MARIANI RENZO 00:31:33
335 40 DI NOLA FABIO 00:31:33
336 362 D’ANTEO SIBILLA 00:31:35
337 653 NASO NALIA 00:31:35
338 234 CASSIANI INGONI STEFANO 00:31:36
339 190 SMANIOTTO STEFANIA 00:31:36
340 331 TURINA GIANNI 00:31:38
341 330 PANZERI PIERCARLO 00:31:39
342 614 VERDOLINI SILVANO 00:31:39
343 115 CARUGGI DARIO 00:31:43
344 665 MORICI SIMONE 00:31:43
345 255 FOSSATI MAURIZIO 00:31:43
346 590 PIOVESAN MASSIMO 00:31:44
347 285 BOMBARDIERI LEONARDO 00:31:46
348 586 MALIGHETTI LAURA 00:31:46
349 548 SAIU IRENE 00:31:47
350 48 PAGANI FEDERICO 00:31:48
351 624 PANIZZA MAURIZIO 00:31:51
352 550 SANTHIÀ RAFFAELLA 00:31:52
353 345 PASINO RAFFAELLA 00:31:53
354 317 CASTELLI TARCISIO 00:31:55
355 315 CALVI MANUEL 00:31:59
356 468 LEZZO DAVIDE 00:32:00
357 5 VALLI GIUSEPPE 00:32:05
358 651 MARIANI WALTER 00:32:09
359 227 CALVANI MASSIMILIANO 00:32:11
360 256 VISMARA CLAUDIO 00:32:13
361 254 SAONCELLA MARCO 00:32:14
362 547 BIONDAN GIULIA 00:32:14
363 322 SALA THOMAS 00:32:15
364 188 REDAELLI PAOLO 00:32:16
365 404 BONETTI STEFANO 00:32:18
366 339 MAURI WALTER 00:32:20
367 673 TURCI SILVIA 00:32:23
368 149 COSTA ROBERTO 00:32:24
369 30 ELLI ALBERTO 00:32:25
370 479 BIFFI ALDO 00:32:28
371 402 ROVELLI LORENZO 00:32:28
372 476 PALAZZI FREDIANO 00:32:30
373 432 MAGNI ENRICO 00:32:30
374 134 VISMARA MARCO 00:32:33
375 133 SPITALE TANINA 00:32:34
376 73 PINI KLAUS 00:32:46
377 359 CORTI IVAN 00:32:48
378 664 DELL’ORTO MAURIZIO 00:32:48
379 304 ARESI NICOLA 00:32:48
380 99 SALA ARMANDA 00:32:50
381 243 ZOBBI ALESANDRO 00:32:53
382 464 NAVIO SEBASTIANO 00:32:55
383 122 BELOUSSOVA SVETLANA 00:32:57
384 640 VIGANÒ GABRIELE 00:32:57
385 180 SANTAMBROGIO CECILIA 00:32:58
386 588 SANTELIA MATTEO 00:32:58
387 106 RUSCONI GABRIELE 00:32:59
388 591 TRENTIN STEFANO 00:32:59
389 136 VISCARDI MICHELE 00:33:00
390 442 MASSA EFISIO 00:33:01
391 635 PANZERI PAOLO 00:33:03
392 185 SALA CLAUDIO 00:33:04
393 318 CAZZANIGA LINA 00:33:04
394 377 BOTTINELLI EUGENIO 00:33:05
395 382 FERRARI MAURIZIO 00:33:06
396 142 BABONI SIMONE 00:33:09
397 275 PRINA GIORGIO 00:33:10
398 419 CASTELLAZZI ALESSANDRO 00:33:11
399 273 POLTRONIERI ALESSANDRA 00:33:13
400 215 VIRGILIO TIZIANO 00:33:14
401 293 GATTI ANNA CLARA 00:33:15
402 59 FUMAGALLI SARAH 00:33:16
403 460 BRENNA MARIO 00:33:17
404 587 TASSI MARCO 00:33:24
405 127 CORTELLESSA ELENA 00:33:24
406 350 CLEMENZA GIUSEPPE 00:33:26
407 481 SPIALTINI ANDREA 00:33:29
408 117 MANES GIUSEPPE 00:33:33
409 631 RESMINI STEFANO 00:33:34
410 139 SCARPA ALESSANDRO 00:33:34
411 107 MOLINARI SILVANO 00:33:37
412 50 ACCOLLA VITTORIO 00:33:39
413 207 MALANGA VINCENZO 00:33:42
414 543 SOZZI PATRIZIA 00:33:43
415 296 GALLI MATTEO 00:33:45
416 297 ZUCCHELLI LAURA 00:33:46
417 302 PICCO MAURIZIO 00:33:49
418 487 TORREGGIANI ROBERTO 00:33:49
419 338 ROCCA EMANUELE 00:33:50
420 19 CASSINELLI ELEONORA 00:33:51
421 507 CONTI MARZIA 00:33:51
422 369 BARONCELLI RAFFAELE 00:33:52
423 181 CASTELLETTI CLAUDIO 00:33:55
424 636 BASSI LUISA 00:34:02
425 298 ROTA ALESSIA 00:34:04
426 358 MARASCO MIMMA 00:34:04
427 341 ROVELLI CRISTIAN 00:34:05
428 344 MARCHETTI ILARIA 00:34:06
429 232 VILLA CARLO 00:34:06
430 498 BREVEGLIERI LUCA 00:34:08
431 102 MOLTENI GABRIELE 00:34:13
432 429 CITI LUCA 00:34:15
433 488 CRESPI GIANMARCO 00:34:15
434 23 PERONI EMANUELA 00:34:16
435 145 IANNACCONE FEDERICO 00:34:19
436 291 CATTANEO MARCO 00:34:25
437 217 PROSERPIO ALESSIO 00:34:29
438 155 DISCACCIATI EMANUELE 00:34:31
439 173 PALANGE JOELLE 00:34:35
440 34 MEDA STEFANIA 00:34:35
441 160 PRIMERANO ALESSANDRO 00:34:40
442 314 FRIGERIO MAURO 00:34:40
443 409 GALBUSERA FABRIZIO 00:34:42
444 416 BOARIN SARA 00:34:45
445 378 ZIMMERMANN ALESSANDRA 00:34:46
446 456 CALASTRI RENZO 00:34:47
447 70 FRANZOSO FRANZ 00:34:50
448 36 STOICO PIETRO 00:34:52
449 178 MATTARELLA MANUEL 00:34:54
450 392 POZZOLI LUCA 00:34:56
451 248 BUSNELLI MICHELE 00:35:04
452 198 DUPPLICATO ANDREA 00:35:05
453 427 BATTAINI FRANCO 00:35:07
454 426 BALCONI ROBERTO 00:35:15
455 295 BASSI FABIO 00:35:20
456 435 TABARRO ANDREA 00:35:20
457 616 BERETTA LORENZO 00:35:23
458 150 SPREAFICO MARCO 00:35:24
459 514 PALA STEFANO 00:35:26
460 108 AROSIO ALBERTO 00:35:29
461 420 BUZZINI ARIANNA 00:35:32
462 463 PIPPO FABRIZIO 00:35:37
463 169 SCHINCARIOL BARBARA 00:35:39
464 528 CRISPINO MARCO 00:35:44
465 110 COSENTINO MICHELE FRANCESCO 00:35:45
466 316 DE FALCO ALESSIA 00:35:47
467 421 CASTELLI LAURA 00:35:47
468 312 CIOCCA FABIO 00:35:48
469 504 BERNASCONI LUCA 00:35:50
470 120 SARTORE LADISLAO 00:35:50
471 189 GHIDELLI CHARLOTTE 00:35:50
472 424 AIELLO ANDREA 00:35:51
473 225 RUSCONI MICHELE 00:35:53
474 457 CONFALONIERI MARIO 00:35:54
475 509 COMINI BEATRICE 00:35:55
476 629 GARAVAGLIA STEFANO 00:35:56
477 523 NEGRI ALESSANDRA 00:35:57
478 138 MASDEA EZIO 00:35:58
479 662 PALLONI IGOR UMBERTO 00:36:00
480 241 MONTI CHIARA 00:36:00
481 630 PANZERI GIUSEPPINA MARIA 00:36:04
482 206 ROCCA ALESSIO 00:36:07
483 216 PREMOLI ALESSIO 00:36:08
484 443 PETRETTI BIANCA 00:36:10
485 607 BAIO ROBERTO 00:36:11
486 368 VERDUCI FABIO 00:36:12
487 380 VAGO ALESSANDRO 00:36:12
488 606 GALBIATI CLAUDIO 00:36:14
489 529 GALLI MARCO 00:36:17
490 450 FRATE NICOLA 00:36:18
491 111 MONTI SERGIO 00:36:26
492 166 MOLTENI CARLO 00:36:28
493 113 PENNATI PIERCARLO 00:36:32
494 412 ZANALDA FRANCESCO 00:36:34
495 521 SACCHI CRISTIANA 00:36:34
496 431 LORUSSO PASQUALE 00:36:37
497 203 GARUFFI MARINO 00:36:38
498 455 GUSMEROLI CESARE 00:36:40
499 325 BRAMBILLA MARIO 00:36:44
500 612 PANIZZA GIULIA 00:36:47
501 61 PALMIERO DAVIDE 00:36:51
502 119 TERENGHI GIOVANNI 00:36:54
503 205 CONTI CAMILLO 00:36:57
504 473 GALLON ROBERTO 00:37:00
505 245 MARIOTTO MATTEO 00:37:02
506 51 MARMORALE LOREDANA 00:37:03
507 623 MAURI ANDREA 00:37:07
508 492 MILANESI ENRICO 00:37:15
509 57 CACCAMO ENRICA 00:37:15
510 363 PEDERZOLI BRUNO 00:37:16
511 303 VIRTUANI LORENZO 00:37:17
512 351 CATTANEO CECILIA 00:37:19
513 154 OSTINELLI CRISTINA 00:37:23
514 520 SABADINI LUIGI 00:37:28
515 77 BESTETTI YURI 00:37:28
516 491 CANALI PIETRO FRANCESCO 00:37:31
517 306 TRINCA MASSIMILIANO 00:37:35
518 68 COMBI SONIA 00:37:37
519 625 PARMINI GIACOMO 00:37:40
520 352 CATTANEO STEFANO ETTORE 00:37:42
521 657 RONCORONI CARLO 00:37:43
522 622 COLOMBO ANDREA 00:37:48
523 477 CAPROTTI MATTEO 00:37:50
524 279 COLOMBO CESARE 00:37:51
525 143 PAGANONI CRISTIANA 00:37:59
526 307 BONACINA MAURIZIO 00:38:01
527 604 RIGAMONTI MARIA TERESA 00:38:02
528 12 ANTONIETTI ELIANA 00:38:05
529 349 PASINO ROBERTO 00:38:08
530 299 ROTA PAOLO 00:38:09
531 564 SPADA MATTEO 00:38:10
532 652 MORANDI MONICA 00:38:13
533 458 MARIANI PIETRO 00:38:18
534 434 ROBBIATI ALBERTO 00:38:25
535 337 MAGNI HELENIO 00:38:26
536 167 CUSTODI ILARIA 00:38:29
537 168 BALLABIO PATRIZIA 00:38:31
538 639 GADDI MAURO 00:38:32
539 524 CICARDINI LAURA 00:38:45
540 388 ESPOSITO TIZIANO 00:38:46
541 542 SACCHI ROBERTO 00:38:48
542 162 BRAMBILLA GIULIA 00:38:56
543 123 BENNATI CECILIA 00:39:00
544 200 RIMOLI DIEGO 00:39:01
545 161 MONTI PAOLO 00:39:02
546 267 SULIS ROBERTO 00:39:04
547 376 COLOMBO FABRIZIO 00:39:07
548 611 ZANDA GIUSEPPE 00:39:08
549 251 GILARDONI STEFANO 00:39:11
550 137 MANGOGNA VITA 00:39:14
551 553 NAVA GIANFELICE 00:39:14
552 642 BARAGGIA MAURO 00:39:23
553 211 RIZZI RICCARDO 00:39:25
554 151 BONALDO GIANLUCA 00:39:27
555 582 DI STEFANO MASSIMO 00:39:32
556 365 TAGLIALEGNE MARISA 00:39:35
557 191 CORTI MAURIZIO 00:39:43
558 231 MOROSINI VALERIA 00:39:46
559 147 CERVINI ALESSANDRO 00:39:48
560 462 PEDRATTI ROBERTO 00:39:50
561 526 PERETTO PIETRO 00:39:56
562 503 RESNATI FABIO 00:40:01
563 121 COSTANZO FRANCESCO 00:40:09
564 613 LOSA IDA 00:40:14
565 183 VENTURA ENRICO 00:40:26
566 172 PEDRONCELLI STEFANO 00:40:26
567 633 DE ANGELIS PATRIZIA 00:40:41
568 353 TORREGGIANI CRISTINA 00:40:44
569 609 GIORDANI GIORGIO 00:40:47
570 69 PELLEGRINI NICOLETTA 00:40:55
571 655 VILLA LORENZO 00:40:56
572 596 PALEARI DANIELA 00:41:00
573 289 CIOCCA MAURIZIO 00:41:02
574 560 CARPI ROBERTO 00:41:03
575 282 BARI LAURA 00:41:04
576 660 ODELLI MARCO 00:41:05
577 55 CACCAMO GIORGIA 00:41:05
578 541 SANGALLI DANIELE 00:41:08
579 146 REDINI PAOLA 00:41:12
580 559 PESCA FEDERICA 00:41:14
581 583 MUSMECI ROBERTO 00:41:14
582 621 BAGLIONI MASSIMO 00:41:17
583 535 GARBELLI CLAUDIO 00:41:19
584 144 GRANATA MATTEO 00:41:20
585 125 CAPUTO LUCIA 00:41:35
586 422 SCANIO SARA 00:41:38
587 533 D’URZO LUIGI 00:41:43
588 536 BERGO ALESSIO 00:41:45
589 284 CRISTINI SARA ILEANA 00:41:49
590 405 DONI DANIELE 00:42:04
591 601 VENTOLA TIZIANA 00:42:15
592 182 CELIA GIUSEPPE 00:42:24
593 617 ANELLI MARCO 00:42:38
594 593 FOSSATI BRUNO 00:43:04
595 489 BARONI INGRID 00:43:09
596 439 PASQUIN MAURIZIO 00:43:26
597 233 BOGHI MONICA 00:43:57
598 54 CACCAMO GIORGIO 00:44:37
599 375 GALBIATI MARIANGELA 00:44:40
600 177 FUMAGALLI JORDAN 00:44:44
601 379 BUSSI LAURA 00:44:45
602 436 VEGETTI FEDERICO 00:44:48
603 512 LAVECCHIA ALBERTO 00:44:50
604 568 ZECCA CRISTIANO 00:44:51
605 423 TAMBURRANO VALERIO 00:44:52
606 268 BONFANTI MAURIZIO 00:44:57
607 425 AMPRINO MATTEO 00:45:02
608 371 PERRY SABRINA 00:45:10
609 372 FURIA MISIA 00:45:13
610 93 CAMPI SARA 00:46:05
611 517 ROSSI AUGUSTO 00:46:10
612 259 SANVITO CORRADO 00:46:45
613 366 MOIO GIUSEPPE 00:46:53
614 661 ROSSINI GIOVANNI 00:46:55
615 281 VECCHI MILENA 00:47:05
616 286 GALLO BEATRICE 00:47:20
617 287 BOETTI MARCO 00:47:42
618 250 FORNASIERO MAURIZIO 00:47:44
619 176 FRIGERIO MARCO 00:47:49
620 222 BESANA FEDERICA 00:47:50
621 221 NESPOLI CORRADO 00:47:53
622 428 CASTELLI FRANCO 00:48:00
623 513 MAGGIONI MONICA 00:48:02
624 466 LAURINI VIRGINIO 00:48:05
625 118 RAUZI MARIA PAOLA 00:48:12
626 486 ZANABONI MARCO 00:49:14
627 510 BOCCHINI ELISA 00:50:15
628 565 DANNA STEFANO 00:50:21
629 238 AJOLFI FLAVIA 00:52:05
630 675 BRUNO SERGIO 00:52:16
631 384 GIACINTI GIOVANNI 00:53:05
632 390 CONCIOLI LUCA FRANCESCO 00:53:07
633 195 PERTILE LUIGI 00:53:53
634 194 COLOMBO SIMONA 00:55:14
635 356 CIVILLINI ROBERTO 00:56:11
636 360 BOCCIONI STEFANO 00:57:23
637 58 HALIK BARBARA 00:57:44
638 656 BARTOCCI FABIO 00:57:49
639 326 COMOTTI ELENA 00:58:50
640 184 MAZZOCCA VALENTINA 01:02:03
641 201 PALANGE CESARE 01:02:45

Commenti disabilitati.

storia e geografia

notizie storiche e geografiche del territorio

monumenti e luoghi

alla scoperta del territorio

sport e turismo

soggiornare nel territorio

Utilizzando il sito, accetti l'utilizzo dei cookie da parte nostra. maggiori informazioni

Questo sito utilizza i cookie per fonire la migliore esperienza di navigazione possibile. Continuando a utilizzare questo sito senza modificare le impostazioni dei cookie o clicchi su "Accetta" permetti al loro utilizzo.

Chiudi